Starlink 31388

operational
NORAD ID: 59565 Int'l Des: 2024-076 Owner: SPXS Country: US Constellation: starlink
LEOCIRCULAR

关于 Starlink 31388

正在加载描述...

实时位置

正在加载3D地球...

即将过境

高度历史

Altitude vs Time

uPlot chart will show altitude changes over time

两行轨道根数

1 59565U 24076B 25306.47038212 .00013417 00000-0 49618-3 0 9999
2 59565 42.9983 7.7028 0001292 289.0121 71.0590 15.27581430 87045
Epoch: Nov 2, 2025 • Age: 8 hours

当前状态

高度 486.5 km
速度 7.63 km/s
星下点 41.38°N, 101.49°E
发射日期 Apr 23, 2024
运行时间 1.5 years
类型 internet

技术详情

分类 Payload
质量 730.00 kg
干质量 700.00 kg
总质量 730.00 kg
长度 0.30 m
直径 4.10 m
跨度 29.00 m
形状 Box + pan
制造商 SPXS
平台类型 Starlink V2M
阶段状态 In Orbit
所有者/国家 SPXS/US

大型星座

Loading constellations...